Theta_e
332 329 331 331 327 327 324 321 320 320 319 317 315 315 314 313 313 313 312 310 310 309 309 308 309 310 311 312 313 314 313 313 313 313 313 313 313 314 314 314 313 313 313
325 325 322 326 323 321 318 315 314 312 313 313 314 313 312 311 310 309 308 307 306 306 306 308 310 312 312 313 313 313 313 313 312 312 312 313 313 313 313 313 313 312 313
322 319 315 314 313 314 314 315 314 314 314 313 312 311 310 309 308 306 306 307 308 308 309 310 310 311 311 312 310 310 310 309 308 309 310 310 309 310 310 310 311 311 312
315 315 315 314 315 314 314 313 313 313 312 311 309 308 307 306 306 306 307 307 307 308 309 309 309 309 310 308 305 304 304 303 304 305 307 307 308 308 308 309 309 310 310
313 313 313 313 313 312 312 310 310 309 309 308 307 306 305 305 305 305 306 306 307 308 308 308 309 309 306 302 300 300 299 300 301 302 303 304 305 306 307 307 307 308 308
312 311 311 311 310 309 307 306 306 306 306 306 306 305 305 304 303 305 305 306 307 306 306 306 306 303 299 296 296 297 298 299 300 301 302 303 303 304 304 305 306 306 308
310 309 308 308 306 306 305 305 304 304 304 305 306 304 303 302 303 304 304 305 305 304 303 303 299 296 296 295 297 297 298 298 298 299 300 301 302 302 302 303 304 305 306
308 307 306 305 305 305 305 304 304 304 304 305 304 302 301 300 302 303 304 303 303 302 300 298 297 296 296 296 298 297 297 298 298 298 298 300 301 302 304 304 303 304 304
305 305 304 303 303 303 302 303 302 303 304 303 301 300 299 300 300 302 302 301 301 300 299 298 297 296 297 297 297 296 297 299 301 302 304 305 307 308 309 308 307 307 307
304 304 303 303 302 301 301 301 300 300 301 300 299 298 297 299 299 301 301 300 301 300 299 298 297 297 297 297 296 296 295 296 297 301 307 308 308 310 310 307 306 306 307
302 302 301 300 299 298 299 298 297 298 299 298 297 297 297 297 299 300 299 300 300 299 298 297 297 297 297 297 297 296 296 297 298 299 301 303 306 308 310 307 305 306 307
300 299 297 297 296 296 296 296 296 296 296 295 295 296 296 297 298 299 300 301 299 297 296 295 296 296 295 296 297 298 299 298 298 298 300 302 304 308 308 308 306 307 307
298 297 296 295 294 295 296 295 294 293 293 292 291 292 293 295 296 297 299 300 297 297 295 293 294 295 295 296 296 297 298 297 297 297 299 301 303 307 307 307 309 307 307
297 295 294 294 293 293 292 291 291 290 289 289 289 290 292 293 294 294 295 295 293 294 292 291 291 292 292 292 294 295 294 295 295 296 298 300 303 307 307 305 307 310 308
297 295 294 293 292 291 291 290 291 291 291 290 289 289 289 291 291 291 292 292 292 291 290 289 289 289 290 290 291 292 292 293 293 294 297 299 303 306 307 304 305 307 308
297 295 294 293 291 291 291 291 291 292 292 293 292 292 291 290 290 291 291 291 291 291 290 289 288 288 288 287 288 289 290 290 291 293 295 298 301 306 304 303 303 304 304
297 294 292 292 291 290 291 291 293 293 293 293 294 293 293 291 291 291 290 290 289 288 289 288 287 286 286 286 286 287 288 288 289 291 293 296 299 305 306 303 302 302 302
297 295 294 293 293 292 292 292 292 292 292 293 293 293 293 292 292 291 291 290 290 288 287 286 285 285 285 285 285 286 286 287 288 289 292 294 297 304 306 305 302 301 301
298 296 295 294 293 293 293 292 292 292 292 292 293 293 292 291 292 291 291 290 289 288 286 285 284 284 284 284 285 285 285 286 286 288 290 292 296 301 303 305 305 302 301
298 297 295 294 293 293 293 292 292 291 291 291 291 291 292 292 292 290 290 290 288 287 285 283 283 283 283 283 284 284 285 286 286 287 289 290 294 299 302 303 304 304 302
293 294 293 292 292 291 291 291 291 291 291 290 290 290 290 290 290 290 289 289 288 286 285 283 282 282 282 283 283 284 285 285 286 287 288 290 293 295 300 301 302 304 304
291 291 291 291 291 291 290 290 290 290 290 289 290 289 289 289 289 289 288 288 287 286 285 283 281 281 281 282 282 283 283 285 286 287 288 289 291 293 298 300 300 301 302
292 291 290 290 290 290 290 290 289 289 289 289 288 288 288 287 288 288 287 286 285 285 284 284 282 281 281 282 282 282 283 283 285 286 287 288 289 291 294 298 298 299 300
292 291 291 291 290 290 290 290 289 288 288 288 288 287 287 287 286 286 286 286 285 284 283 283 282 280 281 281 282 282 283 284 286 287 288 288 289 290 292 296 296 297 298
292 291 291 291 290 290 289 289 289 289 288 287 287 287 286 286 286 285 285 284 284 283 283 282 282 280 280 280 281 282 282 284 285 288 289 289 289 290 290 291 295 295 296
291 290 290 289 289 289 289 289 288 287 287 286 286 286 285 285 285 284 284 283 283 282 282 281 281 280 280 280 280 281 282 283 284 285 288 289 289 289 289 290 292 293 294
Wind_Speed
34 33 34 33 30 29 27 23 20 17 14 13 12 10 12 14 15 15 16 18 19 20 20 20 20 19 21 21 21 21 24 24 12 22 25 25 28 32 35 36 36 36 36
37 37 34 31 27 26 23 20 18 20 18 15 12 15 16 18 19 20 21 21 20 20 19 20 21 21 22 24 22 21 21 21 19 18 25 27 28 31 31 32 34 32 31
35 35 33 33 31 28 24 21 20 19 18 18 17 18 18 19 19 21 20 19 18 18 18 19 20 21 21 17 23 19 18 20 22 22 25 27 29 31 26 27 26 26 25
34 35 34 32 31 28 26 23 21 19 19 18 17 17 18 19 20 22 20 18 18 16 18 19 18 18 15 21 21 23 22 25 24 24 26 26 27 27 22 21 20 20 22
33 35 34 32 29 25 23 21 19 18 18 16 15 17 18 20 22 21 18 16 17 17 17 18 19 14 18 22 24 25 24 22 22 20 21 20 22 21 18 22 20 21 23
35 34 32 29 26 24 22 19 17 17 17 14 15 16 18 18 19 18 16 16 17 19 21 20 16 20 29 25 24 22 19 22 23 20 22 17 23 24 24 22 22 17 5
31 30 30 27 26 24 22 21 21 19 16 14 12 15 16 18 18 17 17 17 17 19 20 19 22 25 27 31 31 24 23 19 16 20 22 24 26 29 28 27 24 19 17
30 30 27 26 24 21 20 19 17 16 16 15 14 15 15 16 18 16 18 20 18 17 22 23 23 25 28 31 32 32 31 30 26 25 24 28 29 32 29 29 28 23 21
27 27 27 24 23 22 21 18 14 15 15 15 14 15 16 13 16 16 18 22 23 24 25 23 24 27 28 31 31 32 36 36 30 27 25 25 23 23 21 21 16 14 4
27 28 25 21 20 19 16 15 12 12 15 13 14 15 17 15 15 16 20 21 26 28 25 26 27 26 27 29 29 28 27 30 33 35 32 29 30 29 24 21 19 13 10
29 26 23 20 19 16 16 14 13 12 12 13 13 13 15 17 17 16 18 20 21 22 23 26 27 27 25 28 29 29 28 30 31 28 28 29 29 31 22 20 18 14 9
26 25 23 20 17 16 17 17 16 16 17 17 17 17 18 18 18 17 17 16 18 21 23 23 26 27 28 30 33 33 35 33 32 30 27 27 30 28 29 17 13 15 14
27 24 23 23 23 20 19 19 21 21 23 21 19 21 22 21 20 21 19 17 19 18 20 22 28 30 32 34 35 36 37 34 31 27 26 28 32 28 29 27 11 10 10
27 26 24 23 22 22 23 25 28 28 24 24 25 24 22 22 23 25 22 18 21 20 22 27 29 32 30 29 35 36 31 28 26 26 29 30 29 27 27 27 18 14 9
24 23 23 23 23 23 23 23 24 23 25 27 28 23 24 22 20 18 19 18 16 21 23 29 36 37 36 36 35 34 33 35 35 33 31 33 30 29 23 26 23 18 12
22 19 18 19 19 21 21 19 18 19 19 20 24 27 29 25 18 16 22 24 22 19 22 27 27 27 27 29 30 31 32 34 35 33 31 33 33 24 26 25 22 17 15
22 20 21 22 23 22 21 19 19 19 18 17 16 18 27 27 27 23 22 26 29 29 24 25 24 25 26 28 28 28 30 33 31 30 30 32 32 29 24 24 22 20 17
21 21 22 22 22 20 21 22 21 22 21 19 17 15 14 20 24 28 26 26 26 29 26 25 23 25 27 29 32 32 34 36 35 33 34 34 33 30 24 23 23 20 18
19 19 18 17 17 16 16 19 21 21 22 24 22 21 20 23 24 26 27 22 22 24 24 24 24 26 28 30 33 34 33 34 33 34 33 32 33 32 30 27 22 22 20
15 15 15 14 12 10 10 11 14 23 22 24 24 23 20 21 26 27 28 26 25 24 25 25 26 27 28 31 33 35 37 39 40 38 35 34 33 31 30 29 27 22 22
25 24 21 20 20 22 22 21 22 20 21 22 24 23 24 25 25 24 27 23 27 30 30 29 29 30 31 33 35 36 37 37 38 39 37 36 32 31 31 29 27 25 23
21 22 22 22 21 20 21 21 22 22 20 20 21 23 24 26 26 25 23 24 23 27 30 32 33 33 33 33 34 35 36 36 36 37 37 35 32 33 29 29 28 25 23
20 22 21 21 23 24 23 21 21 22 21 20 20 22 23 25 25 25 24 22 24 25 27 31 34 34 33 33 33 32 33 33 32 31 33 33 31 34 28 27 27 26 24
24 21 21 19 18 19 20 21 19 19 20 20 19 21 21 21 22 22 21 20 21 23 26 27 31 32 31 33 33 32 31 29 27 28 30 31 33 33 29 27 28 27 24
20 22 23 20 19 18 18 20 21 19 18 19 20 18 18 19 19 20 19 19 19 21 24 25 27 30 30 31 32 32 30 28 27 25 28 30 32 33 32 27 25 27 28
22 22 22 20 19 19 19 18 17 17 17 16 15 16 16 17 17 17 18 19 19 19 21 23 24 27 29 30 31 31 31 31 31 26 26 29 30 32 34 31 29 25 26
Wind_Direction
114 112 115 109 104 102 101 100 101 99 88 80 75 69 60 48 38 25 12 357 352 347 347 347 347 348 342 339 334 329 325 319 300 308 309 310 305 302 302 302 301 299 297
114 113 106 109 105 100 94 88 85 82 80 79 78 73 59 43 27 13 1 357 356 358 358 358 357 348 342 341 338 332 326 318 315 308 307 303 300 301 301 299 299 296 291
110 108 105 102 100 94 90 85 82 83 83 82 75 61 45 30 15 8 4 0 6 13 8 1 352 350 338 337 338 331 323 309 303 297 299 301 297 294 299 295 293 293 296
105 102 98 96 94 95 92 86 82 77 76 73 65 56 41 27 16 10 7 8 10 14 11 4 357 349 342 336 335 324 315 306 304 299 297 296 293 299 298 294 299 302 297
101 98 99 98 96 91 85 79 77 76 75 69 61 55 43 29 17 8 18 23 18 16 10 2 354 336 332 333 332 322 317 310 304 300 295 300 301 307 305 303 295 294 295
99 97 100 96 91 88 84 79 75 73 66 63 58 51 42 30 23 27 29 26 28 17 7 359 354 331 338 342 337 327 318 309 306 303 300 300 299 304 305 300 297 298 300
95 96 97 97 94 89 84 77 73 71 71 68 66 51 41 36 29 35 37 33 28 19 8 360 355 355 353 351 347 342 345 331 313 301 297 298 299 299 299 295 290 285 279
92 96 99 96 91 86 84 79 77 77 72 73 67 46 44 37 30 40 42 41 39 23 15 11 3 359 6 1 357 351 347 346 343 330 315 309 309 311 309 301 288 279 280
93 95 94 90 84 82 77 73 72 79 85 74 59 49 37 41 28 37 39 39 32 28 21 18 7 10 11 11 7 355 351 352 355 356 351 351 347 340 331 327 317 296 279
94 94 91 87 86 84 86 84 78 89 87 87 66 42 39 48 38 36 29 26 28 22 13 14 12 16 15 17 11 359 343 342 347 357 5 4 359 348 337 345 327 322 321
99 97 93 92 90 89 93 87 86 89 89 76 66 55 48 43 42 38 25 23 28 19 12 6 10 16 19 17 18 4 359 359 353 348 346 346 348 347 342 4 10 358 342
98 94 91 88 87 91 93 87 85 83 76 68 60 53 47 40 38 33 29 33 41 28 20 6 15 16 16 20 20 16 18 10 3 355 349 346 342 345 349 356 4 18 40
97 95 93 89 83 88 90 84 77 72 68 57 48 43 35 34 38 34 36 47 36 33 29 16 25 25 20 24 21 20 19 5 357 352 345 342 339 345 358 5 3 8 17
96 94 92 91 88 87 87 85 81 75 65 56 50 41 35 38 36 29 25 31 40 43 33 30 25 26 21 14 15 15 8 360 355 350 343 342 345 348 3 6 354 1 7
101 97 93 90 90 92 87 80 77 72 66 61 56 47 35 31 31 29 28 31 37 37 35 32 27 20 14 11 8 6 5 5 359 354 349 348 351 0 10 11 11 15 14
107 101 102 101 97 91 89 85 77 75 73 71 63 56 57 49 42 43 45 46 45 44 35 32 23 14 10 4 1 357 2 0 358 352 353 355 352 6 14 13 13 15 15
116 112 110 105 99 91 84 85 82 72 70 65 62 62 55 52 47 49 47 45 43 42 38 34 23 13 6 5 4 1 354 356 356 356 357 357 354 360 18 16 13 12 14
118 113 106 104 104 98 84 80 79 73 68 66 60 49 52 48 48 47 46 43 36 36 35 30 21 12 10 8 8 3 360 2 2 1 360 358 358 2 2 19 17 14 15
119 115 114 114 108 101 95 84 74 69 65 63 66 63 66 58 58 53 52 48 38 35 30 26 21 16 15 14 14 10 7 4 3 3 0 360 0 3 6 7 20 20 26
125 133 124 115 109 106 111 91 88 72 68 64 60 58 64 59 52 55 51 52 45 39 35 28 24 20 18 19 18 15 13 13 10 8 3 0 1 5 7 6 9 22 24
109 113 118 111 108 99 96 92 86 87 72 67 61 61 62 62 54 55 55 53 44 41 37 32 28 26 24 23 22 18 16 13 13 11 8 5 1 3 6 10 12 16 23
108 106 105 103 102 98 94 90 84 79 81 68 65 63 62 62 60 59 56 54 44 37 34 33 31 30 30 28 24 20 17 15 16 15 16 12 3 8 9 12 12 15 19
122 117 110 104 102 96 92 91 86 80 80 77 66 64 61 57 57 58 56 49 41 33 30 29 28 27 27 29 30 26 21 16 15 16 19 12 9 12 13 14 14 14 15
113 116 110 109 107 102 97 90 90 83 79 76 72 60 58 57 51 51 50 47 37 27 25 25 24 24 24 26 26 26 25 23 23 25 28 25 23 23 17 16 16 16 17
116 114 110 112 110 108 103 93 88 90 85 77 72 66 56 54 51 44 40 34 29 25 20 19 19 20 22 24 24 24 26 30 30 31 33 33 34 34 27 18 16 16 17
113 111 108 110 105 103 101 98 92 88 86 79 70 62 54 46 44 40 35 28 24 20 18 18 17 17 19 21 21 23 25 29 32 34 35 35 34 35 32 28 24 20 19